RH
15 18 20 18 16 13 10 10 8 8 7 7 8 7 8 8 6 5 4 3 4 6 7 6 6 5 6 6 4 5 4 12 38 47 43 48 54 68 75 61 57 61 57 54 56 62 67 68 73 75 73 72 73 76 77 75 74 74 78 82 83 82 78 76 77 75 71 75 82 87 91 93 93 90 87 81 77 77 76 77 79 78 78 78 76 79
16 21 20 15 13 10 9 10 8 8 7 7 7 6 7 7 6 5 3 4 4 6 8 6 6 5 5 6 4 6 7 18 37 44 43 42 39 48 56 54 60 61 60 68 77 84 84 83 88 86 82 84 85 80 77 78 76 77 83 85 85 83 81 80 77 73 71 74 77 80 83 85 87 92 93 84 77 77 78 77 77 76 77 77 77 78
21 22 18 12 11 10 8 8 8 8 8 8 8 7 7 6 6 5 4 3 3 7 8 6 7 5 5 6 5 5 8 23 40 44 46 46 46 50 52 56 58 60 72 84 91 95 91 92 96 93 92 92 90 88 87 86 83 85 91 90 89 87 87 86 78 73 76 80 79 77 81 82 78 80 87 89 80 77 79 76 75 77 78 78 78 78
24 20 14 12 10 9 9 7 8 9 9 10 8 8 7 5 6 6 5 3 3 6 7 7 7 5 5 5 6 5 5 22 35 36 43 46 52 60 58 62 65 74 89 89 89 96 93 95 97 93 94 89 86 91 92 89 90 94 97 96 94 89 87 86 80 77 79 83 85 83 82 79 74 71 75 86 85 78 80 79 76 79 79 78 78 79
20 16 12 12 10 8 9 7 8 10 11 10 8 8 7 5 6 6 5 5 4 5 6 6 7 6 7 4 7 6 2 16 26 32 50 53 55 65 66 72 81 86 91 89 90 96 93 92 94 94 94 89 90 92 87 89 94 94 96 100 97 91 87 84 81 82 81 82 84 84 83 79 76 74 74 86 88 79 79 80 77 79 79 78 78 79
15 13 11 11 10 8 8 8 9 10 11 11 9 7 6 6 6 4 5 6 6 8 6 6 9 9 8 5 7 6 3 11 21 37 59 63 61 67 70 79 90 90 90 92 95 95 93 93 95 97 94 92 96 94 90 96 98 94 96 100 100 95 89 84 82 82 81 81 80 78 80 78 76 77 81 88 86 77 76 77 76 79 78 76 77 78
13 11 11 11 10 9 9 9 8 9 11 13 9 6 6 6 6 5 5 5 7 9 7 6 10 11 8 7 6 6 5 6 22 48 58 59 60 62 70 83 89 92 94 94 93 92 93 95 97 98 96 94 97 98 98 98 96 97 100 99 99 98 95 90 85 85 87 85 80 77 75 73 73 75 79 82 78 71 73 75 78 80 76 73 74 76
12 11 11 11 10 9 9 9 8 9 11 12 8 6 7 6 6 6 5 6 6 8 9 6 8 10 9 8 6 6 8 2 17 51 60 54 56 59 75 88 86 88 94 93 91 90 92 96 96 96 96 97 99 98 93 87 90 97 100 99 95 93 96 94 85 86 94 89 81 77 72 72 76 76 74 72 71 70 73 77 78 78 77 75 75 76
11 12 12 11 11 10 9 8 8 8 10 9 7 6 6 6 7 5 4 6 5 7 11 8 6 10 9 8 7 5 9 5 7 39 64 59 52 62 81 86 80 81 86 89 88 88 92 96 96 95 95 96 95 88 82 85 94 97 97 97 91 89 95 96 87 88 95 91 82 75 72 75 79 82 79 70 69 72 73 75 76 75 78 79 77 76
11 11 10 10 11 10 8 8 8 8 8 7 6 6 6 7 7 6 6 5 6 10 14 10 6 9 9 7 9 6 8 9 3 22 61 68 58 67 81 80 77 79 83 87 85 85 92 95 95 97 96 92 84 79 84 92 96 93 92 94 93 93 98 98 93 94 96 91 81 74 75 76 73 80 85 75 69 72 73 75 75 74 78 79 78 77
10 9 9 10 10 10 8 8 7 7 7 7 7 7 7 8 7 7 8 5 10 15 13 10 6 7 10 7 8 9 8 11 6 10 39 63 68 73 75 72 75 79 83 87 84 85 93 95 96 99 97 90 82 83 93 97 93 89 87 92 95 97 99 99 96 97 98 89 80 75 72 71 68 73 86 81 70 71 73 74 76 76 77 77 76 75
9 10 10 8 7 9 8 7 7 6 6 8 8 7 8 9 9 9 9 9 15 18 10 8 7 6 10 9 6 8 7 7 8 10 25 50 67 72 68 65 69 74 80 85 87 89 94 96 97 99 97 91 87 90 97 98 97 93 89 91 95 97 99 99 97 96 94 85 78 72 66 68 68 70 84 84 70 69 72 72 73 73 72 72 71 72
11 10 10 9 8 8 9 8 7 6 7 8 7 9 10 11 15 15 13 14 16 15 9 7 8 7 8 9 7 5 6 5 6 14 30 45 58 63 60 59 64 69 75 82 86 89 92 94 96 98 97 95 94 96 98 99 99 97 95 93 94 98 98 94 91 88 86 77 71 69 67 70 71 73 86 84 70 70 72 71 71 70 70 70 68 72
14 12 10 11 8 6 7 7 8 8 8 9 8 10 11 12 20 22 16 16 16 13 9 6 7 10 8 8 8 5 6 8 6 11 26 41 53 56 53 56 61 66 71 78 83 86 88 89 92 95 94 95 97 97 98 99 98 97 98 94 93 98 97 91 87 83 78 71 67 69 69 68 69 77 88 82 71 72 74 72 74 73 73 73 72 75
18 18 13 11 9 7 8 7 8 10 8 8 7 7 9 11 17 20 15 16 17 13 10 9 9 11 9 7 7 6 6 7 8 9 16 34 50 52 51 56 61 64 66 72 79 82 82 84 89 92 90 91 94 95 95 96 97 96 96 96 95 97 97 92 86 78 72 69 70 72 68 64 66 77 86 80 72 75 77 76 76 76 76 77 77 78
18 19 11 9 11 10 11 9 7 8 8 8 6 6 10 9 11 15 14 14 16 15 13 12 11 9 7 7 6 6 6 5 6 6 10 30 48 52 54 58 60 62 63 68 77 78 77 81 86 89 88 89 92 94 94 94 95 96 97 97 97 96 95 88 79 72 71 72 74 75 71 68 70 77 82 79 77 80 81 78 77 79 79 78 79 80
17 17 10 10 12 11 12 12 8 8 8 8 7 7 8 6 8 13 16 15 17 20 17 12 11 9 6 9 8 6 7 5 7 16 24 38 51 54 58 61 59 60 61 67 75 75 73 78 84 86 87 88 90 93 94 93 93 96 96 96 97 95 91 85 79 76 78 79 80 80 78 76 77 79 80 80 81 82 81 79 79 80 80 79 80 83
15 17 14 12 13 11 10 10 9 6 6 8 8 7 6 6 8 12 16 18 18 20 19 11 10 11 9 12 9 6 8 4 9 32 41 39 45 51 56 60 57 56 59 65 73 73 71 75 79 82 85 86 88 90 90 91 93 94 93 92 94 94 89 87 85 81 82 84 84 83 82 80 80 80 81 82 82 82 81 80 78 78 80 81 81 81
13 17 17 12 13 12 8 10 12 8 4 7 7 5 7 11 13 13 15 19 20 21 20 13 10 10 9 10 8 6 10 7 14 43 53 42 45 53 57 59 58 59 63 67 72 72 70 71 74 79 82 84 86 87 88 89 91 91 91 90 90 90 88 88 88 84 84 85 85 84 82 81 81 81 82 82 82 82 81 78 77 79 81 81 79 76
15 20 20 13 11 12 9 11 14 10 6 7 7 4 6 11 12 12 12 14 17 21 21 16 14 12 9 9 8 8 11 9 16 41 57 56 57 60 64 65 63 69 73 69 69 70 68 69 73 77 80 80 83 86 87 88 87 87 89 88 86 89 90 90 89 87 85 84 85 84 82 82 82 81 82 82 81 81 80 77 78 79 78 79 78 76
15 21 24 17 11 12 12 12 12 12 11 9 9 7 7 9 9 9 10 9 12 18 19 20 19 13 8 7 7 8 12 12 13 24 39 55 62 62 64 66 67 73 75 70 67 67 66 68 73 76 79 80 82 85 86 87 86 84 85 86 87 89 91 90 88 86 84 83 84 83 82 81 81 81 82 82 82 81 81 80 79 77 77 81 82 80
14 19 25 21 15 14 14 10 8 10 10 8 8 9 8 9 9 10 13 10 9 13 15 19 20 13 10 11 9 9 12 12 13 15 22 43 61 64 63 65 69 73 73 69 66 64 65 70 74 75 77 79 82 83 85 85 84 82 82 86 89 90 90 90 88 85 82 83 83 83 82 81 80 82 82 81 82 81 82 82 80 78 79 84 87 86
16 18 23 22 16 14 13 9 8 9 8 7 8 8 8 8 8 12 15 13 11 11 12 15 17 16 20 24 20 19 17 11 13 15 14 26 48 61 63 63 67 69 69 67 64 64 66 70 74 74 74 79 81 82 85 84 82 81 81 85 89 89 89 88 86 84 82 82 83 83 82 81 82 84 82 82 83 83 84 86 84 81 81 84 89 90
20 21 24 24 16 12 11 8 9 8 7 10 9 7 8 8 7 9 11 13 14 12 13 16 18 23 29 30 27 28 28 26 30 30 19 17 36 54 59 61 64 65 66 65 64 66 67 67 70 71 72 77 80 83 87 84 80 82 83 86 88 86 85 84 83 83 82 81 82 82 82 82 84 84 84 85 86 86 88 88 85 83 84 87 90 92
22 22 23 26 23 19 18 15 14 12 10 12 10 8 9 7 7 10 10 13 16 15 15 15 21 31 33 28 24 27 37 47 54 52 38 30 42 54 59 64 68 67 66 66 68 68 67 66 67 67 67 72 79 82 83 81 80 84 85 85 86 84 82 81 81 82 82 81 82 81 81 83 85 85 86 87 87 88 90 89 85 84 87 89 89 89
20 23 23 26 28 26 25 23 19 16 13 13 10 10 10 8 8 12 13 15 18 18 15 13 24 38 36 27 20 25 46 60 61 61 57 52 53 56 60 65 68 69 68 69 71 70 69 68 66 65 66 71 77 78 77 77 80 82 82 83 84 82 80 79 79 81 81 81 81 81 82 84 86 87 86 87 87 87 88 88 86 87 89 88 87 86
18 22 21 21 22 20 20 18 14 13 14 13 12 10 10 10 10 11 16 18 17 18 16 14 25 37 34 26 18 25 49 64 64 68 70 68 66 63 65 68 68 68 68 70 72 71 70 70 67 69 73 74 75 75 75 76 77 79 80 81 81 79 77 77 78 79 79 80 81 82 84 86 87 86 86 87 86 85 85 87 87 88 89 86 83 81
20 23 22 20 18 14 13 12 10 11 13 12 12 12 11 10 11 15 20 18 15 20 19 16 26 33 28 21 18 29 50 61 68 75 77 81 82 72 68 71 69 68 67 69 73 73 72 73 72 74 76 75 74 74 75 76 77 79 81 80 79 78 77 77 76 77 78 79 82 84 86 87 87 86 85 85 85 85 87 89 90 90 89 83 78 77
22 24 22 20 18 13 11 11 10 11 11 10 12 14 13 11 13 19 21 16 16 21 18 16 27 32 23 15 19 37 52 55 60 68 72 80 84 77 72 73 72 73 72 72 74 74 76 79 80 80 78 77 76 76 77 79 80 79 78 78 79 78 76 76 76 77 78 80 83 86 87 88 87 85 83 84 86 88 88 89 90 88 84 80 77 79
21 22 21 20 20 16 12 11 10 11 12 12 12 13 13 13 15 18 17 15 17 20 17 17 24 26 20 18 29 44 51 50 52 58 62 66 72 76 77 74 73 75 76 76 76 78 82 86 88 87 83 82 81 81 82 83 80 78 77 77 77 76 75 76 77 78 80 82 85 86 87 87 85 82 83 85 87 89 88 88 85 81 78 78 80 81
22 23 20 19 21 20 16 15 14 13 12 13 13 12 13 14 16 16 15 17 19 18 20 19 18 27 33 30 38 48 47 47 50 54 57 57 62 72 75 71 71 71 73 78 81 83 86 89 90 91 89 88 86 85 85 82 78 78 77 76 75 74 73 74 76 79 82 83 85 84 83 82 81 80 83 86 87 87 87 85 80 76 77 80 81 80
23 24 20 21 25 23 19 20 20 17 19 21 17 14 15 17 19 17 14 18 19 17 25 23 17 35 51 42 38 42 40 43 49 51 55 55 58 67 71 69 71 73 76 84 88 87 88 89 91 92 91 90 87 84 82 80 80 81 80 78 75 74 74 75 77 80 83 83 82 80 79 78 77 78 80 83 85 85 83 80 76 76 80 82 81 78
22 24 22 23 26 25 24 28 30 29 33 34 26 20 19 15 16 18 16 18 20 19 24 22 17 38 55 48 42 42 39 43 48 48 53 55 58 66 67 66 75 82 85 90 93 92 89 88 90 91 89 87 85 82 80 81 84 83 81 80 78 77 79 80 80 82 83 83 80 78 77 74 74 76 78 81 83 81 78 76 76 78 80 79 78 78
22 25 25 23 24 32 42 45 45 44 43 44 42 38 33 22 16 18 18 18 21 20 19 15 22 43 53 50 52 53 46 45 47 48 50 53 62 71 70 71 82 91 93 94 94 94 90 88 89 88 87 86 86 86 85 84 86 85 82 81 78 78 81 83 83 83 82 81 79 77 75 73 73 75 78 80 80 76 75 75 76 78 78 77 76 77
26 26 28 24 21 36 55 59 59 56 48 47 50 47 41 31 19 16 19 19 18 20 18 14 23 41 47 49 58 62 54 46 44 47 49 53 65 76 77 81 87 91 94 96 94 93 91 89 89 88 87 87 88 91 91 88 85 84 82 80 78 79 82 86 86 85 82 81 79 77 76 75 73 75 77 77 75 73 72 73 73 73 73 72 73 75
29 28 27 23 21 36 57 63 62 58 50 48 49 45 40 35 24 19 22 21 17 19 18 13 20 36 44 48 53 53 50 45 42 43 49 59 70 76 79 83 86 87 91 93 91 91 89 87 88 88 87 86 87 91 93 90 86 84 83 82 83 85 86 87 86 83 82 81 79 78 77 75 72 73 74 74 72 71 70 70 70 70 70 70 72 75
23 25 26 25 25 32 44 49 46 46 49 52 49 43 39 34 26 23 26 23 18 19 18 13 20 37 47 49 49 46 45 49 49 45 49 61 70 72 75 79 81 84 86 86 86 87 86 85 85 85 83 83 84 87 89 88 86 85 84 84 85 87 86 86 84 82 80 79 78 78 76 73 71 70 71 71 70 71 70 69 69 69 69 71 73 75
22 24 24 26 26 25 32 40 39 38 45 47 43 41 41 37 28 24 28 28 19 16 16 13 20 42 54 52 52 52 51 57 61 55 53 62 68 72 76 76 76 80 81 82 84 85 85 84 83 82 81 83 84 84 82 82 81 80 80 81 82 83 82 82 82 80 78 77 77 77 75 71 69 69 70 70 70 71 70 68 68 67 67 70 72 73
23 22 22 26 28 24 29 38 39 41 49 53 50 45 42 45 45 37 34 34 27 24 25 16 18 41 58 56 54 57 59 63 64 59 59 67 70 72 77 75 73 74 75 78 82 81 81 81 79 78 79 80 81 80 78 78 77 76 76 77 78 78 77 78 78 76 76 76 77 76 72 68 69 70 71 71 69 69 69 66 65 64 64 65 66 67
28 26 24 27 30 27 30 34 36 46 58 64 66 58 43 45 57 56 48 45 44 46 46 38 35 44 57 61 58 56 58 60 59 57 62 69 70 71 74 73 70 70 70 72 75 75 74 74 73 73 73 73 74 74 73 74 74 73 74 74 74 76 76 76 76 74 74 74 75 74 70 68 69 71 71 71 69 67 66 64 63 61 60 61 62 64
34 30 27 27 28 28 30 30 35 53 64 60 62 61 49 47 57 60 56 54 55 54 51 55 62 64 67 73 69 61 60 60 57 59 65 70 72 71 69 67 66 67 67 68 70 69 68 68 68 68 68 68 68 67 66 69 71 72 73 73 74 75 75 75 75 73 72 72 72 72 71 70 70 70 70 69 67 65 63 61 60 59 60 63 65 66
35 32 30 28 27 27 28 28 34 56 70 62 55 54 51 52 60 62 58 54 57 60 54 54 64 71 76 83 79 71 70 65 59 64 69 70 72 71 66 63 64 66 64 64 65 64 64 65 65 64 65 65 65 64 64 67 71 72 73 75 76 76 75 75 74 72 71 72 73 73 73 72 70 69 69 67 65 63 62 60 59 60 62 65 66 63
38 35 31 32 32 29 28 29 37 59 72 63 54 55 55 57 62 66 63 54 55 63 63 57 58 61 64 69 67 64 64 62 62 68 70 67 68 68 64 62 63 64 63 61 60 60 61 64 63 62 63 62 61 63 65 68 72 74 76 78 77 76 76 76 73 70 69 72 75 75 74 72 70 69 68 66 64 63 62 61 61 61 62 63 62 58
40 38 35 42 47 42 41 46 53 64 71 61 53 56 60 57 56 59 61 56 56 66 69 66 64 58 52 54 60 63 68 72 73 71 68 68 68 66 64 63 62 63 62 59 59 60 60 61 61 60 61 61 61 64 68 71 75 77 78 79 77 76 76 75 73 70 69 72 76 76 74 72 71 69 67 65 63 62 62 62 61 61 61 60 58 55
48 46 42 51 59 55 55 61 59 57 60 58 52 52 54 51 49 54 56 54 56 68 75 75 74 71 63 57 58 66 78 88 85 75 71 74 72 65 63 63 62 61 60 58 60 61 60 60 60 59 59 61 63 66 70 75 79 80 80 80 78 77 76 74 74 73 73 74 76 74 73 71 70 68 66 64 63 62 61 60 58 57 56 55 52 50
53 46 39 47 57 56 54 58 56 50 49 50 46 45 47 46 46 51 55 53 52 60 70 74 79 86 82 65 53 61 79 91 90 80 76 80 79 71 66 65 63 62 60 58 60 60 58 58 58 57 59 63 65 68 73 78 81 83 83 81 79 77 76 75 76 76 74 74 73 71 70 69 68 66 64 62 60 58 56 55 53 52 50 48 46 45
62 50 44 50 56 56 58 63 61 52 49 49 46 43 44 43 42 45 49 50 50 53 59 65 75 89 91 72 53 58 74 83 84 80 78 81 83 76 67 65 66 65 60 58 59 59 57 56 57 59 62 65 67 71 76 79 81 83 82 80 77 76 76 76 77 76 72 71 70 68 67 67 65 63 62 60 56 54 53 52 51 51 51 48 45 42
65 55 62 74 72 65 66 69 60 50 52 57 55 50 48 45 44 44 43 43 46 50 52 55 63 76 84 72 55 56 67 71 69 72 77 82 83 75 67 67 69 65 60 59 59 57 55 56 57 61 65 68 71 75 78 80 83 83 81 78 77 77 77 77 76 73 70 68 67 66 65 64 62 60 59 58 57 57 57 55 51 51 52 51 48 43
62 58 70 84 86 80 76 71 63 59 61 62 58 54 53 50 49 47 43 41 45 50 51 53 54 59 65 62 53 54 62 63 59 64 73 80 81 74 68 68 68 62 59 59 58 56 56 57 58 60 65 70 73 75 77 80 83 82 80 78 78 76 76 74 72 69 67 66 65 64 62 61 60 58 57 58 60 61 60 56 52 51 52 51 51 47
67 70 69 69 76 82 82 75 70 69 70 66 61 57 54 50 50 50 48 48 49 49 50 53 55 56 59 57 52 53 59 60 61 67 75 80 79 73 69 68 66 61 59 59 58 57 58 59 59 62 66 70 73 74 76 79 81 80 77 76 76 74 73 71 68 66 64 63 62 60 59 58 58 57 58 60 61 60 58 55 53 52 52 51 51 49
62 70 68 67 72 74 70 66 65 69 71 66 59 56 53 50 50 52 53 53 53 51 51 53 55 59 63 61 55 54 58 62 67 73 79 80 76 70 68 68 65 61 59 58 57 58 59 58 60 63 67 71 72 73 76 78 79 77 76 75 74 72 69 67 66 64 62 61 60 57 56 57 57 57 59 60 59 57 55 53 51 49 49 51 52 51
Wind_Speed
11 10 13 15 15 17 19 19 19 18 16 16 15 13 14 13 13 15 16 14 17 14 15 17 17 16 19 23 22 12 16 15 13 16 13 12 12 11 11 14 12 11 10 9 13 18 17 19 23 23 25 27 28 31 30 27 26 24 23 25 24 24 25 23 21 21 21 18 15 16 13 7 7 9 11 13 12 11 11 11 12 10 9 9 9 8
13 13 16 18 18 19 20 21 20 19 19 18 14 12 13 13 12 15 18 16 18 13 12 17 18 17 19 21 20 13 16 14 14 17 15 15 14 13 15 15 11 9 6 1 4 5 1 3 11 9 9 16 21 26 28 26 25 24 24 26 27 27 26 24 23 22 21 19 17 18 17 13 9 9 11 11 13 12 12 12 11 10 9 9 8 8
14 15 17 19 19 18 19 21 21 19 19 18 13 11 12 10 11 15 18 19 15 11 9 15 16 16 18 19 19 16 14 12 14 16 14 15 13 11 12 12 11 9 3 8 13 10 5 10 10 9 13 12 16 17 19 20 20 21 23 25 26 25 23 20 21 21 20 18 17 16 16 15 13 11 11 11 11 13 12 12 11 10 10 8 8 8
12 14 17 19 18 20 20 20 21 17 14 15 13 11 11 10 11 11 12 15 11 9 9 13 13 12 15 16 17 16 13 13 16 17 14 14 12 11 10 6 3 3 8 10 10 8 7 13 11 11 13 18 19 16 19 21 20 20 22 22 23 23 21 20 21 21 19 17 16 15 15 13 12 13 8 10 9 13 11 12 10 9 9 8 7 7
13 13 17 20 20 22 21 19 20 15 11 15 16 14 12 12 15 12 11 13 11 10 10 12 10 9 12 15 14 15 14 13 17 17 13 11 10 9 8 8 13 11 12 10 7 8 7 7 6 11 18 19 13 17 25 24 20 22 23 21 20 22 22 21 21 20 19 17 16 14 13 13 11 12 9 9 10 12 12 11 11 9 8 7 5 4
15 15 18 22 22 22 22 18 20 16 10 13 17 19 17 15 16 15 15 15 10 7 9 10 9 7 11 16 15 13 13 13 17 18 14 12 9 7 8 12 16 14 13 12 11 11 7 5 6 14 22 18 9 17 22 16 16 21 21 18 19 22 22 21 20 18 18 18 17 17 15 14 13 13 13 13 14 12 12 11 10 9 7 5 4 3
12 17 19 21 22 23 22 17 19 19 11 10 15 19 20 18 16 16 17 14 9 7 9 12 10 7 9 15 16 15 15 16 16 17 14 12 10 7 8 13 14 13 13 12 11 11 8 7 9 13 16 14 13 17 18 15 15 16 16 17 19 20 18 18 19 18 16 17 18 18 16 14 14 14 15 18 14 12 12 11 11 9 7 4 3 3
14 20 19 21 22 20 18 15 17 19 13 9 13 17 20 21 19 17 17 13 8 8 9 14 14 9 7 11 15 16 17 18 16 16 12 9 9 9 12 15 12 10 11 12 12 12 10 10 15 15 12 11 15 20 21 22 22 20 17 17 20 19 15 16 19 17 13 15 18 17 15 13 11 11 15 16 13 12 12 12 9 8 7 4 1 1
16 20 20 21 20 15 15 15 18 20 14 10 13 16 18 20 17 14 12 11 10 8 8 13 15 10 8 8 12 16 18 18 16 17 15 11 10 9 13 13 11 10 11 12 13 15 14 15 21 24 21 18 18 21 26 28 25 22 19 17 20 20 16 15 17 15 12 13 16 15 14 12 9 9 11 13 14 11 12 11 8 7 6 4 2 2
14 18 19 19 16 14 16 17 20 20 14 12 15 14 14 16 15 12 10 9 10 8 8 12 14 10 9 9 10 13 15 15 13 15 18 16 13 12 12 11 9 9 10 10 13 15 16 22 26 27 30 29 27 26 26 27 24 22 22 21 22 21 17 16 17 15 13 13 15 14 12 10 9 7 8 10 14 11 11 11 8 8 5 3 2 2
14 16 17 16 14 14 16 17 20 20 15 14 15 13 13 14 13 11 9 8 7 7 11 17 16 13 9 9 10 10 11 13 11 10 16 19 19 18 15 13 11 11 11 9 11 13 16 24 30 29 32 35 32 27 25 28 28 28 28 26 25 22 19 18 18 16 14 15 15 13 12 10 11 10 7 7 13 12 11 11 8 7 5 3 3 1
16 16 14 13 15 16 17 17 18 19 17 14 13 11 11 10 9 9 8 8 7 8 13 18 20 16 11 8 9 11 14 15 13 9 14 21 23 22 19 16 14 13 13 11 11 13 14 18 23 25 29 34 34 31 29 29 29 29 30 29 27 23 20 20 20 19 17 17 15 13 13 11 10 8 11 11 12 11 10 10 7 6 4 3 2 2
15 14 13 14 17 19 18 16 15 16 16 14 11 10 10 9 7 8 8 8 9 9 11 16 19 15 9 9 12 14 15 14 14 12 17 21 20 20 19 17 15 13 13 13 13 14 14 13 15 17 20 26 32 32 31 30 29 28 28 29 27 23 22 24 23 21 20 18 17 16 13 9 9 6 13 12 10 10 8 8 6 5 3 2 2 1
11 13 17 18 17 18 17 14 12 12 13 14 12 11 10 9 8 9 9 8 9 10 11 14 15 11 9 10 13 14 14 11 11 15 18 21 20 20 19 17 14 13 13 13 14 15 15 13 13 12 11 14 21 25 27 28 28 27 28 29 27 24 23 25 23 22 21 19 18 17 15 12 11 6 12 8 10 9 7 7 6 4 3 3 2 1
11 10 15 18 12 13 16 13 12 13 13 13 12 11 9 9 8 8 8 8 8 8 10 13 11 9 9 5 8 12 14 13 8 13 15 19 23 20 18 17 15 14 13 13 13 14 15 15 15 15 14 14 18 22 25 26 26 28 29 27 26 24 22 23 24 23 21 19 17 17 17 17 16 10 10 5 7 8 7 6 4 4 4 4 3 1
13 11 14 16 13 15 18 15 15 15 13 11 12 11 10 10 9 6 6 7 6 5 7 9 7 6 6 5 6 9 12 14 9 11 11 18 24 20 18 17 15 13 13 13 13 13 16 18 18 17 16 17 20 22 23 24 24 25 25 23 23 23 23 25 26 24 21 19 18 19 19 19 18 13 9 5 7 7 7 6 4 3 3 4 3 1
11 10 14 16 15 18 20 18 18 15 10 9 11 12 10 12 10 5 6 7 5 5 5 7 8 7 6 7 11 11 12 14 6 8 11 20 23 19 16 15 15 13 13 13 13 14 17 18 19 19 17 18 20 20 20 21 20 20 22 22 22 23 25 26 25 24 22 21 19 18 17 18 17 13 10 8 7 6 6 5 4 3 3 3 4 2
9 8 14 19 18 18 19 19 21 17 12 9 10 12 11 11 11 7 6 6 6 7 6 8 12 10 7 6 11 14 13 13 9 17 18 20 20 17 15 14 15 14 14 15 14 15 17 16 18 20 17 17 20 20 19 18 16 17 21 22 21 23 24 24 23 24 24 22 20 18 17 17 16 13 10 8 7 6 6 5 4 4 4 4 4 2
10 6 12 18 18 17 17 17 17 16 16 12 10 12 11 10 10 8 6 6 8 7 5 9 13 11 9 7 8 11 9 9 12 21 20 19 17 15 15 15 16 14 12 14 15 15 15 14 17 20 19 19 20 20 20 18 17 19 20 21 21 21 21 21 22 23 24 22 20 18 17 17 16 13 10 9 8 7 6 5 5 5 4 3 3 2
8 6 7 15 19 17 14 12 11 12 15 15 13 12 10 8 9 9 6 5 7 7 6 9 11 8 8 9 8 11 10 9 9 18 18 19 17 15 14 14 14 12 9 12 15 15 14 14 18 21 22 22 22 21 21 21 21 22 22 22 22 21 21 22 22 23 24 23 20 18 16 16 15 13 11 9 7 6 6 5 5 5 4 4 3 2
8 6 4 11 17 15 10 11 12 13 13 14 13 12 11 8 8 9 8 7 8 7 6 7 7 6 6 8 9 11 14 10 7 11 12 17 18 15 15 14 12 10 9 11 14 15 14 14 19 22 23 23 22 21 22 22 22 22 24 24 23 23 24 24 23 24 24 22 19 18 17 16 15 13 11 9 7 8 7 5 5 5 4 4 4 3
6 5 3 8 13 12 11 13 16 17 16 13 10 10 12 11 10 9 9 9 9 7 7 6 6 6 4 4 8 10 13 13 12 10 9 14 19 18 16 15 14 12 10 12 13 14 13 13 17 21 23 23 23 22 23 23 22 22 23 24 23 24 25 25 24 24 23 21 19 18 16 15 14 12 10 9 8 9 8 5 5 5 4 4 4 5
4 3 5 7 10 11 14 17 18 18 17 14 12 12 13 12 11 9 8 9 9 8 7 7 7 5 1 2 4 6 7 10 11 11 11 12 17 20 18 16 16 14 13 14 13 13 12 13 17 21 22 23 23 23 24 23 22 22 23 23 23 24 25 25 24 22 21 20 17 16 15 14 13 12 12 10 9 8 8 6 5 5 5 5 5 6
3 3 7 8 8 11 14 16 16 18 16 14 14 13 12 13 12 10 7 6 6 7 7 6 6 3 3 5 4 3 6 7 5 2 9 10 13 18 20 18 16 16 16 15 14 12 12 14 17 18 19 21 21 22 23 23 22 23 23 23 24 25 26 24 23 21 20 19 17 15 15 14 14 14 13 11 10 9 8 6 6 6 6 6 7 8
3 5 9 8 9 10 11 12 14 16 14 11 12 13 15 16 16 12 9 5 4 8 10 8 4 2 2 4 1 7 13 14 14 10 3 9 15 17 17 16 15 16 16 16 16 15 14 15 14 15 18 20 20 22 24 24 25 25 24 24 25 25 24 23 22 21 20 19 17 15 14 14 15 15 13 11 10 9 8 7 7 7 7 8 9 9
5 7 9 8 9 10 11 11 11 12 12 10 13 17 18 19 18 14 8 5 5 8 12 9 2 3 3 3 2 7 14 14 11 11 10 11 15 15 14 13 14 14 15 16 17 15 15 14 13 14 17 20 21 24 25 26 28 26 24 24 24 24 23 22 22 21 20 18 16 15 14 14 15 15 13 11 10 9 8 8 8 8 8 9 10 10
5 7 10 11 10 10 10 11 12 12 12 12 16 20 19 18 17 12 7 7 7 6 9 8 3 5 4 2 4 7 12 12 9 9 9 7 9 12 12 12 13 13 13 14 15 14 13 13 14 15 17 20 22 24 25 25 25 25 24 24 23 23 23 23 22 21 19 17 16 15 15 15 15 14 13 12 11 10 9 9 9 9 9 10 11 11
4 7 11 13 12 12 13 13 16 17 16 16 17 18 19 19 16 10 6 9 8 6 8 8 6 8 5 4 4 7 13 12 9 7 5 4 1 6 9 10 11 13 14 14 14 14 13 13 13 14 17 20 22 23 23 23 23 24 25 24 23 23 23 22 22 20 18 17 17 16 16 15 14 14 13 13 12 11 10 10 10 10 10 11 12 12
4 6 11 12 12 11 14 14 16 17 16 16 15 16 18 19 16 13 10 11 10 7 7 6 7 8 6 6 6 10 14 12 10 9 7 3 3 3 8 9 9 11 14 15 15 15 13 11 10 11 15 20 22 22 23 23 24 26 25 24 24 24 22 21 21 19 17 17 17 17 16 16 15 14 14 13 12 12 11 11 11 10 11 12 12 13
5 6 9 12 11 10 11 13 14 16 16 16 18 18 18 17 16 16 14 13 13 11 8 6 5 6 6 5 8 12 13 12 11 10 10 10 9 9 10 10 9 11 12 12 13 13 11 9 8 8 13 19 22 23 24 24 25 26 25 25 25 23 22 21 20 18 17 17 17 17 16 16 16 15 15 14 13 13 12 12 12 12 12 12 13 13
6 4 6 9 8 9 8 5 7 11 13 16 18 18 16 14 15 17 15 12 12 11 10 10 8 2 2 3 9 11 10 11 11 11 11 10 11 12 12 12 12 12 10 9 10 10 11 11 10 8 11 16 21 24 25 25 25 26 25 24 23 22 20 19 18 17 17 18 18 18 17 17 17 16 15 15 14 14 13 13 13 13 13 13 14 14
5 3 5 7 6 8 7 4 5 6 6 10 15 16 16 15 13 13 13 11 12 10 9 10 9 3 5 5 8 8 9 11 11 12 11 9 10 12 13 13 12 10 9 10 10 11 14 14 13 12 14 18 23 26 26 26 26 25 24 22 22 22 19 17 17 17 19 19 19 19 18 18 18 17 16 16 15 15 14 14 14 13 13 14 14 15
6 4 5 6 6 7 7 3 4 3 5 7 9 11 15 16 14 12 12 13 12 8 6 7 6 7 9 7 8 9 9 11 10 9 9 9 10 11 12 13 11 8 9 11 11 12 14 13 14 16 19 22 25 27 27 28 27 26 25 24 24 24 22 19 17 16 18 19 20 19 18 18 18 17 17 17 16 16 16 15 14 14 14 14 15 15
8 6 5 5 6 5 6 5 1 5 6 4 4 7 7 11 16 14 11 11 10 7 7 7 4 11 11 7 7 6 4 6 7 6 7 9 9 9 10 12 11 9 11 12 12 13 13 14 16 20 23 25 27 28 28 30 29 27 27 26 26 25 25 22 19 17 17 17 18 18 18 18 18 18 18 17 17 16 16 15 15 15 14 15 15 16
6 5 4 4 5 3 7 7 2 7 4 3 7 11 13 10 12 14 11 11 12 11 11 10 7 12 12 7 7 4 1 3 5 3 5 8 9 8 9 13 14 13 13 13 14 14 13 16 19 21 23 25 27 28 28 30 31 29 27 27 25 25 24 23 21 20 18 17 17 18 18 18 18 18 18 18 17 17 17 16 16 15 15 15 15 15
6 4 3 4 4 3 5 4 3 3 0 5 6 6 9 11 8 10 11 12 12 10 10 11 8 10 12 10 12 10 5 4 4 3 5 9 10 9 11 14 15 14 13 13 14 14 15 20 22 21 22 22 23 24 25 26 29 29 28 27 24 21 21 20 19 20 19 17 17 17 18 18 18 19 19 18 17 17 17 16 16 15 15 15 15 15
5 5 4 4 4 4 4 4 3 3 2 2 2 2 4 6 6 6 5 7 10 9 9 11 9 10 11 8 10 12 9 5 4 4 7 10 10 11 14 15 15 15 14 15 16 18 21 25 26 26 26 25 23 24 24 24 24 25 25 24 22 20 19 18 18 19 19 16 16 17 17 17 18 18 19 18 17 17 17 16 16 15 15 15 15 15
7 5 4 4 4 4 4 4 4 4 3 2 3 1 2 4 5 5 3 4 7 8 8 12 10 12 12 7 8 12 10 6 4 4 7 11 13 15 16 16 16 17 18 18 19 21 22 24 26 26 28 28 27 26 26 24 23 22 22 22 22 20 19 18 17 18 18 17 17 17 17 17 18 18 18 18 17 17 17 17 16 15 15 15 15 14
9 7 4 3 4 4 4 4 4 3 1 2 3 2 3 5 5 2 4 5 3 4 6 10 9 11 12 8 8 10 9 6 6 6 8 12 14 15 16 16 17 19 21 22 21 22 22 22 23 24 24 26 26 26 26 25 23 22 22 22 22 21 19 19 19 19 19 19 19 18 17 18 19 19 18 18 17 17 17 16 15 15 15 15 14 14
7 6 5 5 5 4 5 4 2 1 1 4 4 4 5 5 5 0 6 4 3 8 8 5 3 4 9 8 7 9 7 4 4 8 11 14 15 15 15 16 17 18 20 22 23 24 25 24 23 23 23 23 24 25 25 24 22 21 21 21 21 20 19 20 20 20 20 20 20 19 18 18 19 19 19 18 18 18 17 16 15 15 15 14 14 15
6 6 5 7 6 4 5 5 2 3 2 4 3 3 5 4 2 4 4 1 6 9 8 8 9 8 7 3 3 4 1 2 5 12 15 17 17 15 16 18 20 21 22 24 24 26 25 24 23 23 22 23 24 24 23 23 22 21 20 20 20 20 20 21 21 21 21 20 20 20 19 19 19 19 19 18 18 17 16 15 15 15 16 16 15 16
6 6 5 5 6 4 5 5 3 3 3 4 3 3 5 2 3 2 1 3 5 8 9 7 10 11 8 3 2 1 1 3 10 15 16 18 18 15 16 19 20 20 22 25 27 27 25 23 23 23 22 23 24 22 21 22 21 20 20 20 20 20 21 22 21 21 21 21 21 20 19 19 19 19 19 18 18 17 16 15 15 15 16 16 16 16
3 4 6 4 4 4 5 5 3 2 1 2 1 2 4 1 2 2 4 4 7 9 8 5 6 6 7 6 4 4 6 8 12 15 16 17 18 16 16 18 18 18 20 23 25 26 26 24 24 23 23 23 22 22 22 22 20 20 20 20 21 21 22 22 22 20 20 21 22 21 19 19 18 18 18 18 18 17 16 16 16 15 15 16 16 15
1 3 4 2 2 2 3 2 1 2 2 1 1 3 4 4 3 0 3 4 8 6 4 5 6 6 3 5 6 7 8 6 8 13 15 15 16 17 16 17 18 20 21 22 24 25 26 25 24 23 23 21 21 22 22 21 21 21 21 21 21 22 22 23 22 20 20 21 22 22 20 19 18 17 18 18 18 17 17 17 16 15 15 15 15 15
2 2 1 3 4 3 2 1 1 4 5 4 3 5 6 5 5 5 4 5 6 5 3 3 5 7 4 4 7 9 11 6 3 9 14 13 13 15 15 17 20 22 23 24 25 25 25 24 24 24 22 21 21 21 20 20 22 23 21 21 21 21 22 23 22 21 21 21 22 22 20 19 18 17 17 17 17 17 17 17 16 15 15 14 14 14
4 2 2 3 4 5 4 4 3 4 6 6 4 4 5 4 4 5 5 5 6 5 2 3 4 5 5 1 5 10 12 10 6 6 11 12 11 12 14 17 20 20 22 25 26 25 25 25 25 23 22 21 21 20 20 21 22 22 21 20 20 20 22 23 23 22 22 22 22 22 20 19 19 18 17 17 16 16 16 15 14 14 13 12 12 13
5 4 1 3 2 3 3 4 3 3 5 5 4 4 4 4 4 4 4 4 5 4 4 4 4 2 6 6 3 10 13 12 9 8 9 10 11 12 14 16 16 17 21 24 25 26 26 25 23 22 21 20 19 20 21 21 21 21 21 20 20 21 22 23 23 23 23 22 22 21 20 20 20 18 16 13 12 12 13 13 13 12 10 9 9 11
4 5 4 5 4 2 3 4 3 4 6 6 5 5 5 5 6 6 4 3 3 4 6 5 3 5 4 4 3 9 11 11 12 11 8 7 9 11 13 14 15 18 22 23 24 25 25 24 23 22 21 20 19 20 21 21 20 21 22 21 21 22 23 23 23 23 23 22 22 21 21 21 19 17 15 13 12 14 18 18 16 14 13 10 7 8
4 5 3 2 2 3 3 5 5 4 6 6 7 7 6 6 6 6 4 3 4 5 7 6 4 2 4 3 4 7 8 10 12 12 9 8 9 10 12 14 16 20 23 23 23 25 25 24 25 23 21 21 21 20 20 20 20 21 22 22 22 23 23 23 23 23 22 22 21 21 21 20 19 19 19 20 21 23 23 21 18 17 17 15 11 9
4 5 2 4 2 3 2 2 4 1 4 5 7 7 6 5 5 5 6 7 6 5 6 5 3 4 5 4 2 5 7 9 10 10 10 8 8 11 13 15 17 19 21 21 23 26 26 24 25 24 22 21 21 21 21 21 21 22 22 22 22 23 23 24 23 22 22 21 21 21 20 20 20 20 21 23 25 25 24 21 18 17 17 16 14 13
5 5 4 2 3 4 4 2 0 2 4 5 6 5 5 5 5 5 6 8 7 6 6 4 3 4 5 4 2 2 7 9 10 11 10 7 9 13 14 14 17 20 20 19 22 26 26 25 25 24 22 21 21 22 22 22 21 21 21 21 21 22 23 23 22 21 20 20 20 20 19 19 19 18 19 20 23 25 24 22 20 18 16 14 13 12
Wind_Direction
200 206 210 213 212 207 210 216 218 221 226 225 220 221 218 224 236 230 237 219 181 189 210 220 227 220 228 246 253 224 178 182 155 142 147 153 163 165 190 215 208 203 205 202 193 180 173 168 167 169 166 159 148 145 147 149 153 155 154 147 146 148 150 158 162 159 167 172 166 165 180 220 227 207 194 183 182 183 181 178 176 174 172 178 184 187
202 216 215 211 212 210 209 215 219 219 227 237 234 231 224 221 234 227 232 224 187 187 214 216 227 225 224 244 253 219 184 185 156 146 152 163 177 175 185 204 203 201 198 150 73 103 19 74 140 156 147 143 142 145 149 150 153 153 151 150 153 158 158 162 167 168 170 172 172 172 177 187 193 220 240 214 186 180 173 171 173 174 177 183 184 188
206 220 216 209 211 214 213 212 218 218 222 238 242 244 240 216 228 234 230 228 194 174 219 217 220 229 224 237 252 233 195 170 149 152 151 155 172 176 180 193 204 210 138 50 41 70 29 22 75 60 46 110 142 140 141 143 149 147 144 150 155 158 157 157 164 171 173 169 171 175 175 176 177 194 241 251 195 169 167 170 173 178 177 180 184 186
207 217 212 209 209 211 217 212 212 219 218 233 237 239 249 220 219 233 222 226 204 168 220 228 217 226 227 229 245 242 208 169 159 162 152 159 168 160 166 161 142 140 78 57 35 64 56 38 68 76 89 144 152 137 145 151 153 143 136 143 150 154 157 158 166 171 173 170 168 173 171 173 179 176 204 262 213 165 166 171 170 177 172 175 185 182
211 208 203 209 209 206 214 211 206 215 215 225 233 234 243 234 227 224 204 215 212 184 211 238 233 219 227 228 231 237 219 184 170 161 140 151 158 132 135 86 67 76 83 93 93 85 73 49 81 114 137 162 150 136 155 159 157 149 139 139 146 157 162 165 172 170 167 166 163 169 166 163 174 161 161 241 226 170 166 171 168 171 165 167 173 169
216 204 197 205 209 204 209 211 204 209 214 221 229 232 238 243 238 228 214 210 203 194 205 226 245 224 218 227 227 227 222 197 170 155 135 138 153 142 129 96 82 86 92 102 99 94 100 98 127 146 156 166 134 133 153 151 149 149 141 141 149 159 165 166 169 167 164 162 162 167 165 163 166 148 156 208 213 174 168 170 161 158 151 159 175 165
218 207 198 201 207 204 207 213 205 203 212 220 219 224 234 245 241 225 222 220 199 198 209 210 236 246 215 222 224 221 225 212 172 147 140 144 163 167 122 102 97 98 110 122 113 111 121 119 141 159 164 163 129 122 132 129 135 142 139 148 155 158 163 164 164 166 167 163 163 166 165 167 164 154 176 201 196 168 162 157 151 152 145 155 201 178
212 210 201 199 205 204 206 211 204 202 210 220 211 211 226 241 244 227 222 231 211 197 219 216 220 243 235 217 214 216 227 221 186 149 138 153 178 158 113 113 124 126 133 137 130 137 148 147 155 159 155 146 120 119 138 151 155 157 154 155 159 163 164 166 166 169 171 162 163 165 161 167 175 186 195 186 168 156 152 148 149 152 145 147 178 144
204 212 202 196 204 206 206 206 204 207 210 219 213 203 217 238 252 248 234 240 229 205 227 223 209 227 248 222 207 211 222 227 200 162 148 166 180 146 112 124 149 152 146 145 147 157 161 156 160 159 150 138 128 140 161 165 160 156 156 157 162 168 166 167 171 171 170 162 163 166 167 187 213 231 209 166 149 152 147 148 149 142 145 153 154 132
199 213 208 197 202 209 205 202 207 211 207 215 221 204 207 228 244 251 251 255 240 216 235 230 204 207 239 231 215 211 215 224 210 168 156 165 161 133 119 134 153 152 151 162 160 161 160 155 159 159 150 148 155 166 165 158 155 157 162 163 164 166 165 168 172 169 169 164 163 170 179 200 197 194 216 170 147 151 148 146 145 138 139 132 123 117
200 205 216 207 199 208 207 203 209 210 199 207 224 213 200 213 229 238 251 265 250 217 231 237 218 204 224 232 219 221 219 208 206 185 162 154 145 140 145 153 162 159 165 179 160 152 157 157 160 158 152 155 163 169 162 157 161 164 164 164 163 166 165 167 169 167 174 170 166 170 171 179 160 154 236 207 149 150 149 140 137 133 127 118 123 125
209 194 211 215 199 204 209 204 205 203 197 203 218 219 202 197 216 229 231 241 247 227 218 231 234 219 211 225 223 237 236 203 191 191 155 141 140 148 155 159 165 166 167 168 151 149 158 160 164 163 159 159 160 164 167 165 164 162 162 162 163 167 166 166 167 168 173 169 165 164 162 174 151 144 251 235 156 145 144 138 138 132 123 132 146 136
219 195 196 215 207 205 208 201 197 195 196 202 207 213 210 193 197 216 213 211 232 239 220 223 236 231 216 222 225 238 245 213 186 174 151 143 143 147 154 156 160 168 164 156 151 154 161 166 171 173 169 161 157 161 168 169 165 163 164 164 164 168 169 167 168 169 170 164 163 162 159 167 137 144 249 234 144 129 133 127 127 125 125 137 136 131
216 196 193 212 209 201 207 199 189 191 193 197 201 207 212 200 191 203 208 209 222 234 234 230 234 240 238 219 211 226 251 240 187 166 158 154 149 148 154 156 157 165 161 152 154 158 163 169 166 168 167 149 147 158 166 169 166 165 167 167 166 165 166 166 165 168 168 163 164 160 153 151 132 154 240 219 126 121 121 112 110 111 122 122 108 84
203 199 190 203 196 186 209 209 191 194 196 196 204 213 215 208 199 200 205 210 218 222 231 236 233 231 233 214 196 214 245 258 193 159 159 148 145 150 152 154 157 162 160 152 155 159 164 164 157 159 159 146 149 160 167 169 167 166 169 168 164 160 161 162 160 161 162 158 156 150 147 146 136 156 217 198 118 120 118 113 112 115 134 132 117 92
204 205 184 186 176 177 207 223 210 203 198 194 205 214 214 211 203 194 214 226 232 230 223 230 240 237 237 266 256 224 236 250 215 173 165 137 138 147 147 152 158 158 159 155 154 159 163 161 156 158 158 155 160 163 168 172 169 169 169 164 160 157 156 157 157 156 155 150 146 142 142 142 138 154 185 158 119 120 118 121 120 119 152 168 162 139
205 197 178 183 186 188 200 217 219 212 194 185 206 212 207 216 216 194 212 232 246 246 222 215 229 235 231 247 248 231 227 233 198 116 124 130 135 143 143 151 157 156 159 153 151 160 163 163 160 159 155 157 162 164 168 172 169 167 163 156 152 151 153 154 153 151 146 139 136 135 136 137 138 148 154 137 124 118 119 132 140 136 142 177 189 182
206 183 172 185 199 199 199 212 225 223 203 187 204 206 194 210 228 221 205 208 223 237 231 216 221 223 216 224 224 214 219 218 150 99 108 133 142 143 143 151 154 155 155 146 148 159 162 164 163 161 157 155 158 160 163 165 162 160 158 155 149 148 153 153 147 144 139 132 131 132 135 136 135 138 137 131 126 125 134 148 162 161 144 156 176 176
213 194 165 181 198 199 196 212 227 217 205 208 208 197 191 202 218 225 216 200 206 220 229 223 223 222 213 218 209 192 218 232 153 122 124 139 144 142 143 149 147 144 143 144 150 158 165 166 160 158 157 157 157 157 160 162 160 157 154 153 148 144 147 147 141 139 136 132 132 134 135 133 131 132 127 124 126 131 142 147 152 161 157 160 164 150
213 224 163 180 198 195 188 206 217 196 198 218 217 195 195 211 216 219 218 209 210 211 215 222 226 223 208 219 209 177 205 238 154 133 139 144 146 149 147 147 144 138 138 148 155 160 165 163 157 156 157 159 159 157 159 161 158 155 151 148 145 143 144 143 140 138 136 134 134 135 135 130 127 128 123 124 132 137 143 145 149 159 160 159 147 110
200 226 175 181 194 190 187 203 203 189 194 212 210 192 195 213 219 219 213 208 217 215 207 215 229 228 200 215 227 193 195 209 156 145 155 148 148 153 150 149 146 144 151 155 158 161 161 157 154 155 156 158 158 157 160 159 155 154 152 148 146 145 145 143 141 139 135 134 136 136 133 128 125 126 125 124 127 134 144 149 149 152 149 138 122 97
190 203 174 177 185 183 193 204 201 200 202 204 203 195 199 210 214 213 209 208 217 215 207 213 228 232 196 193 235 219 197 189 175 174 171 153 153 153 152 154 150 152 163 162 159 158 154 151 150 154 158 159 159 159 160 157 154 153 152 149 145 143 143 141 139 137 134 135 136 133 130 127 125 128 133 132 124 128 140 146 144 143 133 119 111 100
178 176 166 174 186 187 192 199 205 208 201 198 210 207 199 207 216 215 204 206 218 213 208 220 223 230 27 46 270 253 199 180 179 190 193 169 154 151 152 155 154 158 164 162 159 153 147 148 151 157 161 158 157 157 156 156 157 155 152 147 142 138 138 138 136 134 135 136 133 129 129 129 127 127 130 132 129 132 139 143 143 139 130 120 111 101
136 156 172 176 190 197 194 193 206 217 210 199 209 215 211 208 212 224 223 210 224 222 212 225 222 207 22 7 338 28 79 81 64 220 209 173 140 141 148 150 152 159 162 159 151 146 148 153 155 160 160 156 155 153 152 157 158 151 145 141 136 135 135 136 135 135 136 136 135 133 132 130 130 129 126 126 128 131 136 138 137 131 125 119 110 100
148 175 175 178 182 187 191 189 198 215 220 212 205 214 229 220 203 215 240 222 214 228 223 226 217 166 35 356 354 88 74 58 41 26 53 128 124 132 142 146 149 154 159 155 147 147 155 159 160 163 160 156 152 150 154 158 152 145 142 139 137 138 139 139 138 136 136 138 137 136 133 129 126 124 123 127 131 133 133 132 129 123 117 114 105 96
189 184 170 185 187 182 192 193 190 202 211 212 202 204 224 231 212 204 220 215 206 226 232 234 200 114 58 18 178 120 84 71 61 47 50 93 119 128 138 146 147 151 156 152 148 152 157 160 164 163 156 152 151 152 156 154 147 143 143 142 141 142 142 140 137 136 137 138 136 132 129 124 120 120 123 128 133 133 130 127 123 118 112 108 100 92
190 192 188 202 197 188 201 196 183 192 206 207 201 201 214 232 229 210 194 208 208 213 241 243 174 141 135 127 174 135 102 93 83 57 44 68 114 126 134 144 148 153 158 151 147 151 155 159 163 157 150 150 152 151 149 148 146 143 142 143 143 143 141 137 136 137 137 136 132 127 123 119 119 124 128 128 129 128 125 122 118 113 108 102 97 92
186 199 206 218 212 195 199 197 183 188 206 208 201 205 210 216 227 229 209 210 204 198 235 233 163 136 141 171 173 117 106 106 100 89 66 25 58 119 125 139 148 151 155 152 149 152 157 160 157 151 148 148 149 145 143 143 140 138 138 139 138 138 137 136 137 136 135 132 126 123 123 123 125 129 129 127 125 123 121 119 114 110 105 99 94 89
185 205 208 224 231 208 194 197 188 185 201 210 209 218 216 207 216 232 227 216 213 215 230 217 165 155 173 199 173 122 116 121 124 128 130 155 219 149 124 138 151 154 158 158 155 158 161 156 150 149 148 147 145 140 136 136 136 137 136 132 131 133 134 135 135 133 133 130 124 124 127 129 131 131 129 125 121 120 119 115 111 107 104 99 92 87
200 213 207 213 228 227 211 207 195 184 191 202 210 221 216 202 209 226 229 224 223 227 232 229 205 190 196 184 136 118 123 130 130 136 150 168 174 151 138 149 161 167 165 160 160 161 153 143 145 151 146 144 141 135 130 133 136 136 133 130 132 133 132 132 131 129 130 129 129 131 133 133 133 131 127 124 121 121 119 113 111 108 103 97 90 87
199 204 211 213 216 222 230 242 215 196 197 202 208 216 217 210 213 218 223 230 230 226 229 237 236 224 34 97 118 122 132 137 141 151 160 171 164 150 154 165 171 176 168 148 147 140 120 118 127 132 128 127 127 125 124 127 128 128 128 130 131 130 130 131 129 129 133 135 136 137 135 135 134 129 126 125 123 123 119 115 113 107 101 95 89 87
199 222 216 209 219 214 206 250 256 234 246 235 216 211 213 220 224 214 210 223 232 223 218 235 233 169 74 86 124 140 145 144 155 161 161 175 170 156 162 170 174 178 160 136 129 118 106 107 113 114 112 112 114 116 119 119 117 117 119 121 124 127 130 132 134 137 140 139 138 137 137 137 133 127 127 126 125 124 121 117 113 105 99 95 91 88
192 237 231 191 209 213 183 204 264 259 282 264 228 215 215 217 223 221 209 210 224 225 213 235 227 140 127 138 144 150 155 156 165 165 160 173 171 158 160 166 168 162 137 124 116 110 107 106 109 113 113 112 112 113 116 116 114 114 118 121 125 128 127 127 133 139 141 140 138 136 137 136 130 127 127 127 127 126 121 116 110 104 100 97 94 90
187 216 247 184 193 195 130 90 52 206 219 255 322 326 290 233 218 219 219 210 210 211 210 222 178 128 134 147 135 137 164 156 145 149 161 168 166 162 154 144 135 123 114 112 109 110 111 108 110 112 112 112 111 111 115 119 119 121 125 127 129 130 129 131 136 138 138 137 135 134 133 131 129 129 130 130 130 126 121 117 114 110 107 101 96 92
182 208 240 187 193 171 101 89 179 209 215 339 347 341 335 301 233 216 226 226 212 203 206 213 174 136 137 136 122 125 212 133 121 141 169 153 150 155 138 121 118 117 114 113 113 114 114 113 114 114 115 115 115 113 117 123 126 127 127 128 130 133 135 138 139 137 136 134 132 131 130 131 132 133 132 132 131 126 122 121 118 114 109 103 97 93
171 186 216 200 190 146 119 137 196 195 287 344 338 333 333 320 267 219 220 226 221 211 206 211 191 141 133 130 132 144 160 145 146 167 146 132 138 145 131 123 123 122 120 121 119 118 119 118 117 115 114 115 116 116 118 124 128 129 128 129 131 133 135 136 134 132 131 131 133 133 132 135 138 136 133 131 128 122 118 116 113 109 107 102 96 91
184 187 204 209 188 163 179 197 178 159 206 260 307 290 284 288 267 243 237 224 220 215 204 211 199 144 129 125 125 133 137 136 157 162 130 127 136 136 126 124 123 119 121 125 124 124 126 125 123 122 121 121 120 121 123 127 127 127 128 130 133 135 134 132 130 129 128 129 134 135 136 140 140 135 131 128 125 122 119 116 115 113 109 104 99 95
200 210 225 217 191 182 201 210 204 206 210 182 169 193 291 297 277 266 283 255 226 222 222 223 200 142 130 136 129 130 137 144 161 166 134 126 126 122 119 122 125 125 127 128 125 125 128 128 129 130 130 130 130 132 133 133 132 131 132 135 137 138 137 135 134 134 134 137 140 141 141 142 137 131 128 127 126 125 122 120 119 118 114 109 106 103
198 211 230 224 204 202 211 217 212 217 318 46 69 49 19 356 346 313 231 226 241 281 270 248 218 156 139 141 139 144 156 165 171 169 141 124 121 119 121 125 130 132 134 133 132 131 132 131 131 132 132 133 136 139 138 136 136 136 137 138 139 139 139 139 139 139 140 142 143 143 142 139 133 128 126 126 126 123 120 121 122 122 118 114 110 105
203 215 217 210 210 210 219 225 180 137 22 54 46 353 355 26 27 48 196 198 358 356 350 333 304 159 144 144 150 158 173 195 171 151 133 123 120 120 125 131 135 135 135 135 135 135 137 138 137 137 138 138 139 142 141 139 138 137 138 140 140 138 138 138 138 141 143 143 142 141 139 134 130 127 127 127 126 125 125 127 128 124 117 110 106 101
199 212 213 214 216 200 209 222 148 98 19 57 80 334 353 42 103 162 174 240 343 351 10 40 45 61 96 133 179 164 208 336 120 127 125 123 124 126 132 136 136 136 138 139 140 141 142 144 143 141 139 139 140 143 144 140 136 137 139 140 137 136 138 138 139 142 144 142 140 137 134 131 130 129 130 130 129 129 130 130 127 120 112 107 105 103
193 198 200 221 234 217 212 227 174 115 5 6 65 46 30 58 171 176 321 323 348 4 13 50 78 84 100 154 214 160 33 69 110 119 124 128 132 135 138 137 136 137 140 143 146 146 144 142 142 141 140 141 143 143 141 138 136 137 139 136 133 136 138 138 140 144 143 139 134 131 130 131 131 131 131 130 128 127 127 124 119 115 112 112 113 112
166 198 196 198 240 233 217 228 214 142 10 305 149 68 43 79 174 239 308 349 37 30 11 25 63 89 128 157 162 144 145 135 123 122 127 132 135 137 140 141 138 137 140 144 147 146 142 142 143 142 143 145 143 139 138 139 137 134 132 129 133 138 138 137 140 144 141 133 130 131 132 131 132 131 130 130 130 127 124 121 119 119 119 120 120 118
107 244 211 130 12 274 223 226 229 121 91 11 60 79 77 104 124 156 322 20 48 39 7 9 12 10 69 112 108 104 105 103 116 126 129 132 136 140 144 143 139 139 144 147 146 143 143 144 143 143 143 139 133 131 136 138 134 129 126 129 137 141 139 139 142 142 136 130 131 135 135 132 131 131 130 130 131 128 125 124 125 126 127 128 128 125
349 343 89 71 53 55 99 109 130 126 108 82 74 90 100 110 96 61 34 37 56 56 18 359 354 343 357 91 111 105 97 92 136 138 130 131 140 144 142 138 139 146 149 146 143 144 145 145 144 144 140 131 127 131 136 135 131 129 130 137 145 146 142 140 140 137 135 136 138 139 136 133 131 130 130 132 132 131 134 137 138 137 136 136 134 132
346 351 91 90 100 107 106 107 112 109 107 106 100 90 91 93 81 68 60 47 53 69 70 39 25 338 305 258 121 111 119 142 173 142 125 132 141 138 132 134 140 149 149 145 145 147 146 145 145 141 134 130 130 133 133 132 130 130 135 143 146 143 139 138 138 139 140 141 140 139 135 133 132 132 133 136 139 141 144 144 139 133 133 137 138 137
317 283 17 53 101 131 110 101 114 116 104 101 93 77 75 73 59 57 67 52 46 69 83 78 97 164 265 268 128 116 129 145 147 125 120 131 135 132 133 137 143 149 149 148 149 147 145 145 142 133 129 131 130 127 129 133 132 133 140 145 142 137 138 140 141 141 140 138 137 136 135 135 135 133 131 135 143 139 129 125 123 112 104 114 131 137
311 325 7 18 9 32 72 61 63 87 80 66 62 61 54 53 44 32 34 53 63 81 76 63 101 153 211 257 122 119 131 138 135 130 124 121 127 133 138 141 149 153 151 151 151 147 144 145 142 135 131 132 129 129 133 135 137 142 147 147 145 143 145 147 145 141 139 139 138 138 140 138 131 119 107 104 108 101 94 98 105 99 85 81 93 127
343 360 46 94 10 20 42 18 11 66 86 62 50 47 34 35 36 17 11 44 60 78 81 54 23 77 132 144 114 118 134 141 140 137 128 125 134 139 142 150 156 155 154 154 151 144 142 143 143 141 137 133 133 137 139 140 144 150 150 149 150 150 149 148 146 142 142 141 140 141 141 132 119 110 104 98 95 92 89 93 100 96 86 79 78 101
31 25 88 144 103 71 97 332 327 68 106 73 52 41 23 19 29 17 16 32 35 49 83 84 45 42 70 86 110 138 142 138 133 123 110 116 138 142 145 155 155 152 155 155 144 138 141 144 143 139 135 135 139 142 142 144 148 151 151 151 153 152 150 148 146 144 143 142 143 145 138 122 112 112 109 101 98 97 94 94 95 94 90 86 85 95
61 48 53 94 93 87 103 123 54 74 84 79 68 49 22 7 19 39 36 27 21 21 36 62 95 86 73 60 42 146 148 133 117 108 98 103 135 143 145 150 151 153 157 152 142 142 144 142 139 136 135 138 142 142 143 145 148 149 151 152 151 149 149 147 145 144 145 148 151 147 132 118 116 116 110 105 106 107 103 97 92 90 90 91 92 95